When you browse on this site, cookies collect data to enhance your experience and personalize the content and advertising you see.
Visit our Privacy Policy to learn more. By continuing to use the site, you agree to this use of cookies and data.
  • In Hungary
  • List of Countries
  • For 7 days
  • Water Temperature
  • Weather Map
  • News
  • Weather Widgets
  • user-avatar
    Login

    Hourly Weather Lyutkino

    Today, 19 January, Sunday

    Time Temperature Precipitation Wind Pressure Humidity
    00:00 -3°C° 0 mm 4 mps 748 mmHg 85%
    01:00 -2°C° 0 mm 3 mps 749 mmHg 86%
    02:00 -2°C° 0 mm 3 mps 750 mmHg 92%
    03:00 -2°C° 0 mm 3 mps 750 mmHg 92%
    04:00 -2°C° 0 mm 3 mps 750 mmHg 92%
    05:00 -2°C° 0 mm 3 mps 750 mmHg 92%
    06:00 -2°C° 0 mm 3 mps 750 mmHg 92%
    07:00 -1°C° 0 mm 3 mps 751 mmHg 91%
    08:00 -2°C° 0 mm 4 mps 751 mmHg 90%
    09:00 -2°C° 0 mm 4 mps 751 mmHg 88%
    10:00 -1°C° 0 mm 4 mps 751 mmHg 86%
    11:00 -1°C° 0 mm 4 mps 751 mmHg 85%
    12:00 -1°C° 0 mm 4 mps 751 mmHg 83%
    13:00 -1°C° 0 mm 4 mps 751 mmHg 81%
    14:00 -1°C° 0 mm 4 mps 752 mmHg 79%
    15:00 -1°C° 0 mm 4 mps 752 mmHg 80%
    16:00 -1°C° 0 mm 4 mps 752 mmHg 82%
    17:00 -1°C° 0 mm 4 mps 752 mmHg 83%
    18:00 -1°C° 0 mm 4 mps 752 mmHg 85%
    19:00 -1°C° 0 mm 4 mps 751 mmHg 87%
    20:00 -1°C° 0 mm 5 mps 751 mmHg 89%
    21:00 -1°C° 0 mm 5 mps 751 mmHg 90%
    22:00 -1°C° 0 mm 5 mps 751 mmHg 91%
    23:00 -1°C° 0 mm 5 mps 751 mmHg 91%

    Tomorrow, 20 January, Monday

    Time Temperature Precipitation Wind Pressure Humidity
    00:00 0°C° 0 mm 5 mps 751 mmHg 90%
    01:00 0°C° 0 mm 5 mps 751 mmHg 88%
    02:00 0°C° 0 mm 5 mps 751 mmHg 86%
    03:00 0°C° 0 mm 5 mps 751 mmHg 88%
    04:00 0°C° 0 mm 5 mps 751 mmHg 89%
    05:00 -1°C° 0 mm 5 mps 751 mmHg 91%
    06:00 -1°C° 0.1 mm 5 mps 751 mmHg 93%
    07:00 -1°C° 0.1 mm 5 mps 751 mmHg 95%
    08:00 -1°C° 0.1 mm 5 mps 752 mmHg 96%
    09:00 -1°C° 0.1 mm 5 mps 751 mmHg 96%
    10:00 -1°C° 0.1 mm 5 mps 751 mmHg 96%
    11:00 -1°C° 0.1 mm 5 mps 751 mmHg 95%
    12:00 -1°C° 0.1 mm 5 mps 751 mmHg 96%
    13:00 -1°C° 0.1 mm 5 mps 751 mmHg 96%
    14:00 -1°C° 0.1 mm 5 mps 751 mmHg 96%
    15:00 -1°C° 0 mm 5 mps 751 mmHg 94%
    16:00 -1°C° 0 mm 5 mps 750 mmHg 93%
    17:00 -1°C° 0 mm 5 mps 750 mmHg 92%
    18:00 -1°C° 0 mm 5 mps 750 mmHg 89%
    19:00 -1°C° 0 mm 6 mps 749 mmHg 86%
    20:00 -1°C° 0 mm 6 mps 749 mmHg 83%
    21:00 -2°C° 0 mm 6 mps 748 mmHg 82%
    22:00 -1°C° 0 mm 5 mps 748 mmHg 81%
    23:00 -2°C° 0 mm 5 mps 747 mmHg 80%

    Day after tomorrow, 21 January, Tuesday

    Time Temperature Precipitation Wind Pressure Humidity
    00:00 -2°C° 0.1 mm 5 mps 747 mmHg 84%
    01:00 -2°C° 0.1 mm 5 mps 746 mmHg 88%
    02:00 -3°C° 0.1 mm 6 mps 745 mmHg 92%
    03:00 -3°C° 0.4 mm 6 mps 744 mmHg 91%
    04:00 -3°C° 0.4 mm 6 mps 743 mmHg 90%
    05:00 -2°C° 0.4 mm 6 mps 742 mmHg 89%
    06:00 -2°C° 0.4 mm 7 mps 741 mmHg 88%
    07:00 -1°C° 0.4 mm 7 mps 741 mmHg 87%
    08:00 -1°C° 0.4 mm 8 mps 740 mmHg 87%
    09:00 0°C° 0.1 mm 7 mps 740 mmHg 87%
    10:00 0°C° 0.1 mm 7 mps 739 mmHg 88%
    11:00 +2°C° 0.1 mm 7 mps 739 mmHg 88%
    12:00 +2°C° 0 mm 6 mps 738 mmHg 87%
    13:00 +3°C° 0 mm 6 mps 738 mmHg 85%
    14:00 +3°C° 0 mm 6 mps 738 mmHg 84%
    15:00 +3°C° 0 mm 6 mps 737 mmHg 84%
    16:00 +2°C° 0 mm 6 mps 737 mmHg 85%
    17:00 +2°C° 0 mm 5 mps 736 mmHg 85%
    18:00 +2°C° 0.6 mm 5 mps 736 mmHg 89%
    19:00 +1°C° 0.6 mm 4 mps 735 mmHg 93%
    20:00 +1°C° 0.6 mm 4 mps 735 mmHg 97%
    21:00 +1°C° 0.4 mm 5 mps 734 mmHg 93%
    22:00 0°C° 0.4 mm 5 mps 734 mmHg 90%
    23:00 -1°C° 0.4 mm 6 mps 734 mmHg 87%

    22 January, Wednesday

    Time Temperature Precipitation Wind Pressure Humidity
    00:00 -2°C° 0 mm 6 mps 734 mmHg 84%
    01:00 -3°C° 0 mm 6 mps 735 mmHg 81%
    02:00 -4°C° 0 mm 6 mps 735 mmHg 78%
    03:00 -4°C° 0 mm 6 mps 735 mmHg 78%
    04:00 -4°C° 0 mm 6 mps 734 mmHg 78%
    05:00 -4°C° 0 mm 6 mps 734 mmHg 78%
    06:00 -4°C° 0 mm 6 mps 734 mmHg 79%
    07:00 -4°C° 0 mm 5 mps 733 mmHg 79%
    08:00 -4°C° 0 mm 5 mps 733 mmHg 79%
    09:00 -4°C° 0.1 mm 5 mps 733 mmHg 78%
    10:00 -3°C° 0.1 mm 6 mps 733 mmHg 77%
    11:00 -3°C° 0.1 mm 6 mps 733 mmHg 76%
    12:00 -3°C° 0.1 mm 6 mps 733 mmHg 77%
    13:00 -2°C° 0.1 mm 5 mps 732 mmHg 77%
    14:00 -4°C° 0.1 mm 5 mps 732 mmHg 78%
    15:00 -4°C° 0 mm 5 mps 732 mmHg 78%
    16:00 -3°C° 0 mm 4 mps 732 mmHg 78%
    17:00 -4°C° 0 mm 4 mps 733 mmHg 79%
    18:00 -4°C° 0 mm 4 mps 733 mmHg 80%
    19:00 -4°C° 0 mm 4 mps 733 mmHg 81%
    20:00 -5°C° 0 mm 5 mps 734 mmHg 83%
    21:00 -5°C° 0.1 mm 5 mps 734 mmHg 83%
    22:00 -5°C° 0.1 mm 5 mps 734 mmHg 83%
    23:00 -5°C° 0.1 mm 5 mps 735 mmHg 83%

    23 January, Thursday

    Time Temperature Precipitation Wind Pressure Humidity
    00:00 -6°C° 0.1 mm 5 mps 736 mmHg 78%
    01:00 -6°C° 0.1 mm 6 mps 736 mmHg 73%
    02:00 -8°C° 0.1 mm 7 mps 737 mmHg 68%
    03:00 -9°C° 0 mm 7 mps 737 mmHg 66%
    04:00 -9°C° 0 mm 7 mps 738 mmHg 65%
    05:00 -11°C° 0 mm 7 mps 738 mmHg 63%
    06:00 -10°C° 0 mm 6 mps 739 mmHg 64%
    07:00 -10°C° 0 mm 6 mps 739 mmHg 65%
    08:00 -10°C° 0 mm 6 mps 739 mmHg 65%
    09:00 -9°C° 0 mm 6 mps 740 mmHg 62%
    10:00 -9°C° 0 mm 6 mps 740 mmHg 59%
    11:00 -9°C° 0 mm 7 mps 741 mmHg 56%
    12:00 -9°C° 0 mm 6 mps 741 mmHg 55%
    13:00 -9°C° 0 mm 6 mps 741 mmHg 55%
    14:00 -9°C° 0 mm 6 mps 742 mmHg 54%
    15:00 -10°C° 0 mm 5 mps 742 mmHg 56%
    16:00 -9°C° 0 mm 4 mps 742 mmHg 58%
    17:00 -9°C° 0 mm 4 mps 743 mmHg 60%
    18:00 -8°C° 0 mm 3 mps 743 mmHg 61%
    19:00 -8°C° 0 mm 3 mps 743 mmHg 63%
    20:00 -8°C° 0 mm 3 mps 743 mmHg 64%
    21:00 -9°C° 0 mm 3 mps 743 mmHg 67%
    22:00 -8°C° 0 mm 2 mps 743 mmHg 70%
    23:00 -8°C° 0 mm 2 mps 743 mmHg 73%

    24 January, Friday

    Time Temperature Precipitation Wind Pressure Humidity
    00:00 -8°C° 0 mm 3 mps 742 mmHg 76%
    01:00 -8°C° 0 mm 3 mps 741 mmHg 80%
    02:00 -8°C° 0 mm 4 mps 741 mmHg 83%
    03:00 -8°C° 0.1 mm 4 mps 739 mmHg 86%
    04:00 -7°C° 0.1 mm 5 mps 738 mmHg 89%
    05:00 -7°C° 0.1 mm 5 mps 737 mmHg 92%
    06:00 -6°C° 0.5 mm 5 mps 736 mmHg 93%
    07:00 -6°C° 0.5 mm 5 mps 734 mmHg 93%
    08:00 -6°C° 0.5 mm 5 mps 733 mmHg 94%
    09:00 -5°C° 0.4 mm 5 mps 733 mmHg 95%
    10:00 -4°C° 0.4 mm 5 mps 732 mmHg 95%
    11:00 -2°C° 0.4 mm 5 mps 732 mmHg 95%
    12:00 -2°C° 0.1 mm 5 mps 731 mmHg 92%
    13:00 -1°C° 0.1 mm 5 mps 731 mmHg 88%
    14:00 -1°C° 0.1 mm 5 mps 731 mmHg 84%
    15:00 -1°C° 0 mm 5 mps 732 mmHg 84%
    16:00 -2°C° 0 mm 5 mps 732 mmHg 83%
    17:00 -2°C° 0 mm 5 mps 733 mmHg 83%
    18:00 -4°C° 0 mm 5 mps 733 mmHg 83%
    19:00 -4°C° 0 mm 5 mps 733 mmHg 84%
    20:00 -5°C° 0 mm 5 mps 734 mmHg 84%
    21:00 -5°C° 0 mm 5 mps 734 mmHg 83%
    22:00 -5°C° 0 mm 5 mps 734 mmHg 81%
    23:00 -5°C° 0 mm 5 mps 735 mmHg 79%
    Show more